| Date | Time | Temp. (oF) | Dew Point (oF) | Rel. Hum. (%) | Press. (in.) | Wind Dir. | Wind Speed (mph) | Hourly Rainfall (in.) |
|
|---|---|---|---|---|---|---|---|---|---|
| 1 | 06/01 | 00:00 | 70 | 69 | 98 | 29.84 | SSW | 2 | 0.00 |
| 2 | 05/31 | 23:00 | 71 | 71 | 100 | 29.84 | NE | 1 | 0.00 |
| 3 | 05/31 | 22:00 | 72 | 72 | 100 | 29.86 | E | 3 | 0.02 |
| 4 | 05/31 | 21:00 | 72 | 72 | 100 | 29.85 | NE | 3 | 0.02 |
| 5 | 05/31 | 20:00 | 73 | 71 | 96 | 29.85 | E | 2 | 0.00 |
| 6 | 05/31 | 19:00 | 73 | 71 | 94 | 29.85 | E | 4 | 0.00 |
| 7 | 05/31 | 18:00 | 73 | 70 | 93 | 29.86 | ESE | 5 | 0.00 |
| 8 | 05/31 | 17:00 | 73 | 70 | 93 | 29.89 | ENE | 2 | 0.00 |
| 9 | 05/31 | 16:00 | 73 | 70 | 93 | 29.89 | ESE | 2 | 0.00 |
| 10 | 05/31 | 15:00 | 73 | 70 | 92 | 29.92 | SE | 4 | 0.00 |
| 11 | 05/31 | 14:00 | 73 | 69 | 90 | 29.93 | ESE | 3 | 0.00 |
| 12 | 05/31 | 13:00 | 71 | 68 | 93 | 29.95 | E | 5 | 0.00 |
| 13 | 05/31 | 12:00 | 70 | 68 | 96 | 29.97 | E | 3 | 0.00 |
| 14 | 05/31 | 11:00 | 68 | 66 | 96 | 29.97 | E | 6 | 0.00 |
| 15 | 05/31 | 10:00 | 66 | 65 | 99 | 29.98 | ENE | 4 | 0.00 |
| 16 | 05/31 | 09:00 | 65 | 64 | 100 | 29.98 | ESE | 1 | 0.00 |
| 17 | 05/31 | 08:00 | 64 | 63 | 100 | 29.99 | E | 1 | 0.00 |
| 18 | 05/31 | 07:00 | 63 | 63 | 100 | 29.99 | E | 3 | 0.00 |
| 19 | 05/31 | 06:00 | 63 | 63 | 100 | 29.99 | ENE | 3 | 0.01 |
| 20 | 05/31 | 05:00 | 63 | 63 | 100 | 29.99 | ENE | 2 | 0.00 |
| 21 | 05/31 | 04:00 | 63 | 62 | 97 | 29.99 | ESE | 4 | 0.00 |
| 22 | 05/31 | 03:00 | 63 | 62 | 97 | 29.99 | E | 3 | 0.00 |
| 23 | 05/31 | 02:00 | 64 | 63 | 97 | 30.01 | ESE | 4 | 0.00 |
| 24 | 05/31 | 01:00 | 64 | 62 | 94 | 30.03 | E | 3 | 0.00 |